EN

Hourly Weather Bolshoe Morozovo

Today, 30 October, Friday

Time Temperature Precipitation Wind Pressure Humidity
00:00 +8°C° 0 mm 3 mps 743 mmHg 89%
01:00 +8°C° 0 mm 3 mps 743 mmHg 89%
02:00 +8°C° 0 mm 3 mps 743 mmHg 90%
03:00 +8°C° 0.1 mm 2 mps 743 mmHg 91%
04:00 +8°C° 0.1 mm 2 mps 742 mmHg 92%
05:00 +7°C° 0.1 mm 2 mps 742 mmHg 94%
06:00 +8°C° 0.1 mm 2 mps 742 mmHg 94%
07:00 +8°C° 0.1 mm 2 mps 742 mmHg 95%
08:00 +8°C° 0 mm 2 mps 743 mmHg 95%
09:00 +8°C° 0 mm 2 mps 743 mmHg 94%
10:00 +9°C° 0 mm 2 mps 743 mmHg 92%
11:00 +9°C° 0 mm 2 mps 743 mmHg 90%
12:00 +9°C° 0.1 mm 2 mps 743 mmHg 91%
13:00 +9°C° 0.1 mm 2 mps 743 mmHg 91%
14:00 +9°C° 0.1 mm 2 mps 743 mmHg 92%
15:00 +9°C° 0.1 mm 2 mps 743 mmHg 93%
16:00 +10°C° 0.1 mm 1 mps 743 mmHg 94%
17:00 +10°C° 0.1 mm 1 mps 743 mmHg 95%
18:00 +10°C° 0.3 mm 1 mps 743 mmHg 95%
19:00 +10°C° 0.3 mm 1 mps 743 mmHg 95%
20:00 +9°C° 0.3 mm 1 mps 743 mmHg 95%
21:00 +9°C° 0.1 mm 1 mps 743 mmHg 95%
22:00 +9°C° 0.1 mm 1 mps 744 mmHg 95%
23:00 +9°C° 0.1 mm 1 mps 744 mmHg 94%

Tomorrow, 31 October, Saturday

Time Temperature Precipitation Wind Pressure Humidity
00:00 +9°C° 0.1 mm 1 mps 744 mmHg 95%
01:00 +9°C° 0.1 mm 1 mps 744 mmHg 95%
02:00 +8°C° 0.1 mm 1 mps 744 mmHg 95%
03:00 +8°C° 0.1 mm 1 mps 744 mmHg 96%
04:00 +8°C° 0.1 mm 1 mps 744 mmHg 96%
05:00 +8°C° 0.1 mm 1 mps 745 mmHg 96%
06:00 +7°C° 0.2 mm 2 mps 745 mmHg 97%
07:00 +8°C° 0.2 mm 2 mps 745 mmHg 97%
08:00 +8°C° 0.2 mm 2 mps 746 mmHg 97%
09:00 +8°C° 0 mm 2 mps 746 mmHg 94%
10:00 +9°C° 0 mm 2 mps 746 mmHg 92%
11:00 +9°C° 0 mm 3 mps 747 mmHg 89%
12:00 +9°C° 0 mm 3 mps 747 mmHg 88%
13:00 +10°C° 0 mm 3 mps 747 mmHg 87%
14:00 +10°C° 0 mm 3 mps 747 mmHg 86%
15:00 +9°C° 0 mm 3 mps 748 mmHg 88%
16:00 +9°C° 0 mm 3 mps 748 mmHg 89%
17:00 +8°C° 0 mm 3 mps 748 mmHg 91%
18:00 +8°C° 0 mm 3 mps 748 mmHg 90%
19:00 +7°C° 0 mm 4 mps 749 mmHg 89%
20:00 +7°C° 0 mm 4 mps 749 mmHg 88%
21:00 +7°C° 0 mm 4 mps 749 mmHg 87%
22:00 +7°C° 0 mm 4 mps 749 mmHg 87%
23:00 +7°C° 0 mm 5 mps 749 mmHg 86%

Day after tomorrow, 1 November, Sunday

Time Temperature Precipitation Wind Pressure Humidity
00:00 +6°C° 0 mm 5 mps 749 mmHg 86%
01:00 +6°C° 0 mm 5 mps 749 mmHg 86%
02:00 +6°C° 0 mm 5 mps 749 mmHg 86%
03:00 +6°C° 0 mm 5 mps 749 mmHg 86%
04:00 +6°C° 0 mm 5 mps 749 mmHg 87%
05:00 +6°C° 0 mm 5 mps 749 mmHg 88%
06:00 +5°C° 0 mm 5 mps 749 mmHg 88%
07:00 +5°C° 0 mm 5 mps 749 mmHg 89%
08:00 +4°C° 0 mm 6 mps 749 mmHg 90%
09:00 +4°C° 0 mm 6 mps 749 mmHg 88%
10:00 +4°C° 0 mm 6 mps 749 mmHg 86%
11:00 +5°C° 0 mm 6 mps 748 mmHg 85%
12:00 +5°C° 0 mm 6 mps 748 mmHg 84%
13:00 +5°C° 0 mm 6 mps 748 mmHg 82%
14:00 +5°C° 0 mm 6 mps 748 mmHg 81%
15:00 +5°C° 0 mm 6 mps 748 mmHg 80%
16:00 +6°C° 0 mm 5 mps 747 mmHg 79%
17:00 +5°C° 0 mm 5 mps 747 mmHg 78%
18:00 +5°C° 0 mm 5 mps 747 mmHg 78%
19:00 +5°C° 0 mm 5 mps 747 mmHg 78%
20:00 +5°C° 0 mm 5 mps 747 mmHg 77%
21:00 +5°C° 0 mm 5 mps 746 mmHg 80%
22:00 +5°C° 0 mm 4 mps 746 mmHg 82%
23:00 +5°C° 0 mm 4 mps 746 mmHg 85%

2 November, Monday

Time Temperature Precipitation Wind Pressure Humidity
00:00 +5°C° 0 mm 4 mps 746 mmHg 87%
01:00 +5°C° 0 mm 4 mps 746 mmHg 88%
02:00 +5°C° 0 mm 3 mps 746 mmHg 90%
03:00 +5°C° 0 mm 3 mps 746 mmHg 91%
04:00 +5°C° 0 mm 3 mps 746 mmHg 92%
05:00 +5°C° 0 mm 3 mps 746 mmHg 92%
06:00 +7°C° 0 mm 3 mps 746 mmHg 93%
07:00 +7°C° 0 mm 3 mps 746 mmHg 94%
08:00 +7°C° 0 mm 3 mps 746 mmHg 94%
09:00 +7°C° 0 mm 3 mps 746 mmHg 91%
10:00 +8°C° 0 mm 3 mps 746 mmHg 89%
11:00 +8°C° 0 mm 4 mps 746 mmHg 86%
12:00 +9°C° 0 mm 3 mps 746 mmHg 85%
13:00 +9°C° 0 mm 3 mps 746 mmHg 84%
14:00 +9°C° 0 mm 2 mps 746 mmHg 83%
15:00 +9°C° 0 mm 2 mps 746 mmHg 85%
16:00 +9°C° 0 mm 2 mps 747 mmHg 86%
17:00 +8°C° 0 mm 2 mps 747 mmHg 88%
18:00 +8°C° 0 mm 2 mps 747 mmHg 89%
19:00 +8°C° 0 mm 2 mps 747 mmHg 90%
20:00 +8°C° 0 mm 2 mps 747 mmHg 91%
21:00 +7°C° 0 mm 2 mps 747 mmHg 92%
22:00 +7°C° 0 mm 2 mps 747 mmHg 94%
23:00 +6°C° 0 mm 2 mps 747 mmHg 95%

3 November, Tuesday

Time Temperature Precipitation Wind Pressure Humidity
00:00 +6°C° 0 mm 2 mps 747 mmHg 95%
01:00 +6°C° 0 mm 2 mps 748 mmHg 95%
02:00 +6°C° 0 mm 2 mps 748 mmHg 95%
03:00 +6°C° 0 mm 2 mps 748 mmHg 95%
04:00 +7°C° 0 mm 2 mps 748 mmHg 94%
05:00 +8°C° 0 mm 1 mps 748 mmHg 93%
06:00 +7°C° 0 mm 2 mps 748 mmHg 92%
07:00 +7°C° 0 mm 2 mps 748 mmHg 91%
08:00 +7°C° 0 mm 3 mps 748 mmHg 90%
09:00 +8°C° 0 mm 3 mps 748 mmHg 87%
10:00 +9°C° 0 mm 3 mps 748 mmHg 84%
11:00 +9°C° 0 mm 3 mps 749 mmHg 80%
12:00 +10°C° 0 mm 3 mps 749 mmHg 80%
13:00 +10°C° 0 mm 3 mps 749 mmHg 80%
14:00 +10°C° 0 mm 2 mps 749 mmHg 80%
15:00 +9°C° 0 mm 2 mps 749 mmHg 81%
16:00 +9°C° 0 mm 2 mps 749 mmHg 83%
17:00 +9°C° 0 mm 2 mps 749 mmHg 84%
18:00 +8°C° 0 mm 2 mps 749 mmHg 85%
19:00 +8°C° 0 mm 2 mps 750 mmHg 85%
20:00 +8°C° 0 mm 2 mps 750 mmHg 86%
21:00 +7°C° 0 mm 2 mps 750 mmHg 87%
22:00 +7°C° 0 mm 2 mps 750 mmHg 89%
23:00 +7°C° 0 mm 2 mps 750 mmHg 90%

4 November, Wednesday

Time Temperature Precipitation Wind Pressure Humidity
00:00 +7°C° 0 mm 1 mps 750 mmHg 91%
01:00 +7°C° 0 mm 1 mps 750 mmHg 92%
02:00 +7°C° 0 mm 1 mps 751 mmHg 93%
03:00 +7°C° 0 mm 1 mps 751 mmHg 93%
04:00 +6°C° 0 mm 1 mps 751 mmHg 93%
05:00 +6°C° 0 mm 1 mps 751 mmHg 93%
06:00 +6°C° 0 mm 1 mps 751 mmHg 93%
07:00 +6°C° 0 mm 1 mps 752 mmHg 93%
08:00 +6°C° 0 mm 1 mps 752 mmHg 93%
09:00 +6°C° 0 mm 2 mps 752 mmHg 88%
10:00 +8°C° 0 mm 2 mps 753 mmHg 84%
11:00 +9°C° 0 mm 2 mps 753 mmHg 80%
12:00 +9°C° 0 mm 2 mps 753 mmHg 80%
13:00 +9°C° 0 mm 2 mps 753 mmHg 79%
14:00 +9°C° 0 mm 2 mps 753 mmHg 78%
15:00 +10°C° 0 mm 1 mps 753 mmHg 82%
16:00 +9°C° 0 mm 1 mps 753 mmHg 85%
17:00 +8°C° 0 mm 1 mps 754 mmHg 89%
18:00 +8°C° 0 mm 1 mps 754 mmHg 89%
19:00 +8°C° 0 mm 1 mps 754 mmHg 90%
20:00 +8°C° 0 mm 1 mps 754 mmHg 91%
21:00 +7°C° 0 mm 1 mps 754 mmHg 91%
22:00 +7°C° 0 mm 1 mps 754 mmHg 92%
23:00 +6°C° 0 mm 2 mps 754 mmHg 92%
Show more